Regional Weather Roundup
Issued by NWS

Home | Current Version | Previous Version | Graphics & Text | Print | Product List | Glossary On
Versions: 1 2 3 4 5 6 7 8 9 10 11 12 13 14 15 16 17 18 19 20 21 22 23 24 25 26 27 28 29 30 31 32 33 34 35 36 37 38 39 40 41 42 43 44 45 46 47 48 49 50
000
ASUS43 KMPX 201401
RWRMN
WEATHER ROUNDUP FOR MINNESOTA
NATIONAL WEATHER SERVICE TWIN CITIES/CHANHASSEN MN
800 AM CST SAT DEC 20 2014


NOTE: "FAIR" INDICATES FEW OR NO CLOUDS BELOW 12,000 FEET WITH NO
SIGNIFICANT WEATHER AND/OR OBSTRUCTIONS TO VISIBILITY. N/A MEANS
CURRENT SKY AND/OR WEATHER CONDITIONS ARE NOT AVAILABLE.

MNZ060>063-068>070-201500-
   Twin Cities Metro

CITY           SKY/WX    TMP DP  RH WIND       PRES   REMARKS
TWIN CITIES    CLOUDY    30  26  85 SE6       30.16S FOG     WCI  24
ST PAUL        CLOUDY    30  26  85 SE8       30.18R WCI  22
CRYSTAL        CLOUDY    31  27  85 SE7       30.14S FOG     WCI  24
BLAINE         CLOUDY    30  30 100 S7        30.15S FOG     WCI  23
LAKEVILLE      CLOUDY    28  27  93 S5        30.15S FOG     WCI  23
EDEN PRAIRIE   CLOUDY    31  27  85 S10       30.14S FOG     WCI  22
SOUTH ST PAUL  CLOUDY    31  27  86 SE3       30.16F FOG
LAKE ELMO      CLOUDY    30  28  93 S7        30.17S FOG     WCI  23
$$
MNZ001>005-007-008-013>017-022>024-027-028-201500-
   Northwest Minnesota

CITY           SKY/WX    TMP DP  RH WIND       PRES   REMARKS
BEMIDJI          N/A     29  28  96 S6        30.01F FOG     WCI  23
HALLOCK        CLOUDY    28  27  93 CALM      29.99R FOG
ROSEAU         CLOUDY    28  25  86 S6        29.99F HAZE    WCI  22
WARROAD        CLOUDY    28  25  86 SE7       30.00F FOG     WCI  21
THIEF RVR FALL CLOUDY    28  28 100 S8        30.00S WCI  20
CROOKSTON      CLOUDY    28  28 100 SW8       30.02S FOG     WCI  20
FOSSTON        CLOUDY    27  27 100 S14       30.01S FOG     WCI  15
DETROIT LAKES  CLOUDY    30  30 100 S8        30.02S FOG     WCI  23
MOORHEAD       CLOUDY    30  30 100 S6        30.04S WCI  24
PARK RAPIDS    CLOUDY    30  28  92 S10       30.02S FOG     WCI  21
MAHNOMEN       CLOUDY    28  28  96 S9        30.01S FOG     WCI  20
$$
MNZ006-009>011-018-025>026-201500-
   North Central Minnesota

CITY           SKY/WX    TMP DP  RH WIND       PRES   REMARKS
BAUDETTE       CLOUDY    27  26  96 S5        30.01F FOG     WCI  22
FLAG ISLAND    CLOUDY    27  25  93 S12       30.00S FOG     WCI  16
INTL FALLS     CLOUDY    27  24  89 S5        30.05S WCI  22
WASKISH        CLOUDY    28  28 100 CALM      30.03S FOG
BIG FORK       LGT SNOW  28  27  93 S5        30.05S WCI  23
LONGVILLE      CLOUDY    28  28 100 S9        30.04F FOG     WCI  20
GRAND RAPIDS   CLOUDY    27  25  93 SE9       30.05F WCI  17
CRANE LAKE     CLOUDY    25  23  93 S3        30.10S FOG
ORR            MIX PCPN  25  21  86 SE6       30.05S WCI  18
COOK           LGT SNOW  27  25  93 S6        30.08S WCI  20
WALKER         CLOUDY    29  28  95 S6        30.03S FOG     WCI  23
$$
MNZ012-019>021-037-201500-
   Northeast Minnesota

CITY           SKY/WX    TMP DP  RH WIND       PRES   REMARKS
DULUTH         CLOUDY    26  23  88 S6        30.11S FOG     WCI  19
ELY            LGT SNOW  27  25  93 S3        30.09F
HIBBING        LGT SNOW  27  23  85 SE6       30.08S FOG     WCI  20
EVELETH        LGT SNOW  27  25  93 SE6       30.10S WCI  20
DULUTH HARBOR  CLOUDY    28  25  86 CALM      30.17S
TWO HARBORS    CLOUDY    30  25  80 S3        30.13S
SILVER BAY     MIX PCPN  28  27  93 CALM      30.13S
GRAND MARAIS     N/A     32  27  81 SW9       30.18S WCI  24
G MARAIS ARPRT CLOUDY    25  21  86 S3        30.12S FOG
$$
MNZ029>031-032-039>041-046>048-054>057-064-201500-
   West Central Minnesota

CITY           SKY/WX    TMP DP  RH WIND       PRES   REMARKS
FERGUS FALLS   CLOUDY    28  28 100 S10       30.07R FOG     WCI  19
WHEATON        CLOUDY    28  27  93 S8        30.07S WCI  20
MORRIS         PTCLDY    30  28  93 S13       30.05R FOG     WCI  20
ALEXANDRIA     CLOUDY    29  27  92 S10       30.05S FOG     WCI  20
ELBOW LAKE     CLOUDY    28  28  98 S12       30.04S FOG     WCI  18
WADENA         CLOUDY    28  27  93 S12       30.04S FOG     WCI  18
GLENWOOD       CLOUDY    28  28 100 S14       30.06S FOG     WCI  17
APPLETON       CLOUDY    32  28  86 S7        30.06S WCI  26
BENSON         CLOUDY    30  28  93 SW12      30.06S FOG     WCI  21
ORTONVILLE     CLOUDY    30  27  86 S8        30.05S FOG     WCI  23
MADISON        CLEAR     34  32  93 S6        30.06S FOG     WCI  29
WILLMAR        CLOUDY    32  28  86 S5        30.08F FOG     WCI  27
$$
MNZ033>034-036-042>043-049>051-058-059-201500-
   Central Minnesota

CITY           SKY/WX    TMP DP  RH WIND       PRES   REMARKS
ST CLOUD       CLOUDY    32  29  88 S9        30.10F FOG     WCI  24
SAUK CENTRE    CLOUDY    29  28  94 S10G16    30.07F FOG     WCI  20
PAYNESVILLE    CLOUDY    28  27  96 SE9       30.08F FOG     WCI  19
AITKIN         CLOUDY    30  27  86 SE7       30.07F HAZE    WCI  23
PINE RIVER     CLOUDY    28  28 100 S7        30.08F FOG     WCI  21
BRAINERD       CLOUDY    30  29  96 S9        30.07F FOG     WCI  22
STAPLES        CLOUDY    28  27  93 S9        30.05F FOG     WCI  20
LONG PRAIRIE   CLOUDY    28  28 100 S15       30.06F FOG     WCI  17
LITTLE FALLS   CLOUDY    32  28  86 S8        30.09S FOG     WCI  25
LITCHFIELD     CLOUDY    30  30 100 CALM      30.10F
BUFFALO        MIX PCPN  30  28  93 S5        30.13F WCI  25
MAPLE LAKE     CLOUDY    31  31  99 S6        30.12F FOG     WCI  26
$$
MNZ037-044-045-052-053-201500-
   East Central Minnesota

CITY           SKY/WX    TMP DP  RH WIND       PRES   REMARKS
PRINCETON      CLOUDY    30  28  93 SE6       30.13S FOG     WCI  24
MORA           CLOUDY    28  27  93 S5        30.14S WCI  23
CAMBRIDGE      CLOUDY    30  23  74 SE3       30.12F HAZE
RUSH CITY      CLOUDY    29  26  89 SE5       30.14S WCI  23
MOOSE LAKE     CLOUDY    28  27  93 S5        30.11S WCI  23
HINCKLEY       CLOUDY    30  28  93 CALM      30.13F FOG
CLOQUET        CLOUDY    27  25  93 CALM      30.11F FOG
MCGREGOR       CLOUDY    28  28 100 S7        30.09F VSB 1   WCI  21
$$
MNZ071>073-080-081-089-090-097-098-201500-
   Southwest Minnesota

CITY           SKY/WX    TMP DP  RH WIND       PRES   REMARKS
MONTEVIDEO     CLOUDY    30  30 100 SW12      30.07F WCI  21
GRANITE FALLS  CLOUDY    31  28  90 S9        30.09S WCI  23
CANBY          CLOUDY    31  29  92 S7        30.06S FOG     WCI  25
MARSHALL       CLOUDY    30  27  86 S10       30.07S WCI  21
REDWOOD FALLS  CLOUDY    31  28  89 S9        30.09F WCI  23
OLIVIA         CLOUDY    32  30  93 S8G16     30.08F WCI  25
PIPESTONE      CLOUDY    30  28  93 S5        30.04R FOG     WCI  25
WINDOM         CLOUDY    28  28 100 SE5       30.09S FOG     WCI  23
WORTHINGTON    CLOUDY    28  27  93 S9        30.08S WCI  20
JACKSON        CLOUDY    30  28  93 S7        30.10S WCI  23
TRACY          CLOUDY    32  29  90 S7        30.07F FOG     WCI  25
SLAYTON        CLOUDY    30  30 100 S3        30.06S FOG
$$
MNZ065>067-074>077-082>085-091>093-201500-
   South Central Minnesota

CITY           SKY/WX    TMP DP  RH WIND       PRES   REMARKS
MANKATO        CLOUDY    30  27  86 S9        30.14F WCI  22
NEW ULM        CLOUDY    28  28 100 S8        30.11F WCI  20
ST JAMES       CLOUDY    30  28  93 SE8       30.13F WCI  23
FAIRMONT       CLOUDY    28  25  86 S9        30.11F WCI  20
GLENCOE        CLOUDY    32  31  99 S6        30.12F FOG     WCI  26
FARIBAULT      CLOUDY    28  27  93 S6        30.16S FOG     WCI  22
OWATONNA       CLOUDY    28  27  93 S9        30.15S FOG     WCI  20
WASECA         CLOUDY    30  28  93 S9        30.17R FOG     WCI  22
ALBERT LEA     FOG       28  28 100 S6        30.15S VSB 1/4 WCI  22
$$
MNZ078>079-086>088-094>096-201500-
   Southeast Minnesota

CITY           SKY/WX    TMP DP  RH WIND       PRES   REMARKS
ROCHESTER      CLOUDY    27  26  96 S8        30.17S FOG     WCI  19
RED WING       CLOUDY    28  25  86 SE3       30.18S FOG
STANTON        CLOUDY    31  27  87 S6        30.15S FOG     WCI  25
DODGE CENTER   FOG       28  28 100 S8        30.15F VSB 1/4 WCI  20
WINONA         CLOUDY    30  27  86 SE5       30.22S WCI  25
AUSTIN         FOG       28  27  93 S6        30.16S VSB 1/2 WCI  22
PRESTON        CLOUDY    26  26  96 SE6       30.18S FOG     WCI  20
$$
ABBREVIATIONS USED IN REMARKS
   TC - TEMPERATURES IN CELSIUS
  WCI - WIND CHILL INDEX
   HX - HEAT INDEX
  VSB - VISIBILITY
$$



USA.gov is the U.S. government's official web portal to all federal, state and local government web resources and services.